[[{"header":{"parameterUnit":"m.s-1","parameterCategory":1,"la1":30.2991,"la2":30.254,"lo1":-89.0895,"lo2":-89.0444,"dy":0.0017,"dx":0.0017,"nx":28,"ny":28,"refTime":"2024-04-11T03:00:00:Z","depth":0,"parameterNumber":2,"parameterNumberName":"U-component_of_WINDS"},"data":[0,0,0,0,0,0,0,0,0,0,0,0,0,0,0,0,0,0,0,0,0,0,0,0,0,0,0,0,0,0,0,0,0,0,0,0,0,0,0,0,0,0,0,0,0,0,0,0,0,0,0,0,0,0,0,0,0,0,8.9589,8.9591,0,8.9829,8.9832,8.9835,8.9778,8.9774,8.9769,8.9765,9.0014,9.0025,9.0035,0,0,0,0,0,0,0,0,0,0,0,0,0,8.9085,8.9095,8.9588,8.9591,8.9594,8.9829,8.9832,8.9835,8.9779,8.9774,8.9768,8.9763,9.001,9.0023,9.0036,0,0,0,0,0,0,0,0,0,0,0,0,0,8.9313,8.9098,8.9588,8.9595,8.9598,8.9828,8.9832,8.9836,8.978,8.9773,8.9766,8.976,9.0006,9.0022,9.0038,9.0278,0,0,9.0088,9.0095,0,0,0,0,0,0,0,0,8.93,8.9331,8.9591,8.9595,8.9598,8.9767,8.9746,8.9984,8.9782,8.9711,8.9765,8.9757,8.9937,8.9959,9.0019,9.0289,9.03,9.009,9.01,9.0107,9.0111,0,0,0,0,0,0,0,8.9284,8.932,8.9684,8.9594,8.9599,8.9587,8.9612,8.9791,8.986,8.9717,8.9713,8.9742,8.9938,9.0004,9.0025,9.0304,9.0089,9.0104,9.0114,9.012,9.0786,9.0793,0,0,0,0,0,0,8.9265,8.9308,8.9676,8.9691,8.9429,8.9602,8.9629,8.972,8.9858,8.9872,8.9748,8.9739,8.9979,9.0006,9.0033,9.0325,9.0106,9.0122,9.0131,9.0778,9.0788,9.0796,0,0,0,0,0,0,8.9254,8.9298,8.9666,8.9499,8.9544,8.9618,8.972,8.9728,8.9793,8.9882,8.9894,8.9802,8.9975,9.001,9.0218,9.0333,9.0129,9.0144,9.0769,9.0781,9.0792,9.091,0,0,0,0,0,0,8.924,8.9294,8.9385,8.9501,8.9554,8.9846,8.9727,8.9738,8.9821,8.9812,8.9935,8.9949,8.9972,9.0194,9.0234,9.0352,9.0157,9.0759,9.0774,9.0788,9.0896,9.0924,9.0948,0,0,0,0,0,8.9222,8.9408,8.939,8.9434,8.9668,8.9852,8.9883,8.9904,8.9831,8.9924,8.9981,8.9945,9.0314,9.0215,9.0261,9.0385,9.0752,9.077,9.0787,9.0884,9.0918,9.0947,0,0,0,0,0,0,8.9304,8.9423,8.9404,8.9633,8.9733,8.9843,8.996,8.9939,9.0063,9.0049,9.0071,9.0099,9.0312,9.0369,9.0257,9.0626,9.0522,9.055,9.0581,9.0614,9.064,9.0622,9.0171,0,0,0,0,0,8.9349,8.9487,8.9584,8.9778,8.9829,8.9886,8.9967,8.9975,9.008,9.0122,9.0194,9.0298,9.0437,9.0529,9.0661,9.0904,9.0931,9.1012,9.1038,9.1059,9.1083,9.1219,9.1256,9.0854,9.0854,9.0854,0,0,8.9443,8.9525,8.9611,8.9796,8.9874,9.002,8.9922,9.0078,9.0187,9.0146,9.0347,9.0404,9.0521,9.0748,9.0852,9.0802,9.12,9.1081,9.1097,9.111,9.1241,9.1279,9.1312,9.0866,9.0864,9.0862,0,0,8.9688,8.9763,8.9934,9.0015,9.0135,9.0172,9.0213,9.0327,9.0363,9.0565,9.0538,9.0668,9.0907,9.0993,9.1068,9.1349,9.1323,9.1392,9.1529,9.1661,9.1693,9.1721,9.1824,9.186,9.1415,9.1415,9.1416,0,8.979,9.0006,9.0024,9.0185,9.0268,9.0238,9.0412,9.049,9.0648,9.0707,9.0649,9.095,9.1027,9.1275,9.1344,9.1405,9.1455,9.1378,9.1686,9.1715,9.1741,9.184,9.1878,9.1423,9.1422,9.1422,9.1421,0,9.0127,9.0278,9.0401,9.0555,9.0652,9.0818,9.0864,9.096,9.0961,9.1005,9.1213,9.1304,9.1456,9.1515,9.1517,9.1765,9.1731,9.168,9.1577,9.1787,9.1881,9.1918,9.1434,9.1432,9.1429,9.1427,0,0,9.0431,9.0593,9.0639,9.0709,9.084,9.0958,9.1124,9.1273,9.1357,9.1467,9.1609,9.1813,9.1767,9.1852,9.1864,9.1979,9.22,9.1914,9.1917,9.1966,9.2483,9.2522,9.2565,9.2183,9.219,9.2196,9.2474,0,9.069,9.0982,9.1005,9.1269,9.141,9.1384,9.153,9.1627,9.1673,9.1801,9.1852,9.1998,9.1925,9.1977,9.209,9.2149,9.2304,9.2129,9.2317,9.2324,9.229,9.2613,9.2655,9.2913,9.251,9.2516,9.252,0,9.1032,9.1153,9.1431,9.1545,9.1605,9.1735,9.1875,9.1996,9.2107,9.2133,9.223,9.2226,9.2399,9.2289,9.253,9.2411,9.2489,9.253,9.2541,9.256,9.2436,9.2644,9.2995,9.3035,9.2577,9.2573,9.2569,0,9.1229,9.1461,9.1659,9.1719,9.1856,9.1949,9.2011,9.2115,9.2204,9.2326,9.2385,9.2526,9.2604,9.2714,9.275,9.2665,9.2991,9.2882,9.3019,9.3019,9.309,9.3085,9.346,9.3137,9.3137,9.3136,9.3135,0,9.1517,9.1689,9.1749,9.1871,9.2064,9.2089,9.228,9.2336,9.2429,9.2563,9.2549,9.2675,9.2713,9.2847,9.2876,9.3073,9.3108,9.3135,9.3141,9.3138,9.3135,9.319,9.3174,9.3146,9.3144,9.3142,9.314,0,9.177,9.1817,9.2031,9.2144,9.2176,9.2314,9.2411,9.253,9.2573,9.2743,9.2785,9.2855,9.3012,9.3058,9.3246,9.3266,9.3498,9.3486,9.346,9.3461,9.3596,9.3584,9.4022,9.4082,9.3717,9.3721,9.3724,0,9.1952,9.2084,9.2211,9.23,9.2365,9.2508,9.2599,9.2629,9.2725,9.2862,9.2965,9.312,9.3245,9.3498,9.3567,9.3712,9.3705,9.3849,9.3727,9.372,9.371,9.3703,9.3718,9.3872,9.3876,9.3879,9.3882,0,9.2272,9.2289,9.2419,9.256,9.2669,9.2781,9.2889,9.2963,9.3009,9.3117,9.3277,9.3375,9.3568,9.3723,9.387,9.3935,9.3919,9.3919,9.3959,9.3958,9.3939,9.3954,9.3525,9.391,9.3907,9.3905,9.3903,9.3902,9.2497,9.2614,9.2722,9.287,9.2954,9.3056,9.3173,9.3233,9.3366,9.3525,9.3535,9.371,9.382,9.4016,9.4089,9.4228,9.4186,9.4243,9.4257,9.4272,9.4284,9.3915,9.4254,9.4254,9.4253,9.4252,9.4252,0,9.2817,9.2886,9.3021,9.3173,9.329,9.3261,9.338,9.348,9.3633,9.3737,9.3861,9.4047,9.4198,9.4279,9.443,9.4525,9.4521,9.4564,9.4558,9.4574,9.4312,9.4263,9.4565,9.4565,9.4565,9.4565,9.4565,9.4565,9.2998,9.3196,9.3226,9.3466,9.3534,9.3704,9.3775,9.387,9.3953,9.4161,9.4286,9.4337,9.4433,9.4591,9.4729,9.4749,9.4807,9.4855,9.4871,9.4624,9.4592,9.4562,9.4517,9.4867,9.4867,9.5123,9.5125,9.5127]},{"header":{"parameterUnit":"m.s-1","parameterCategory":1,"la1":30.2991,"la2":30.254,"lo1":-89.0895,"lo2":-89.0444,"dy":0.0017,"dx":0.0017,"nx":28,"ny":28,"refTime":"2024-04-11T03:00:00:Z","depth":0,"parameterNumber":3,"parameterNumberName":"V-component_of_WINDS"},"data":[0,0,0,0,0,0,0,0,0,0,0,0,0,0,0,0,0,0,0,0,0,0,0,0,0,0,0,0,0,0,0,0,0,0,0,0,0,0,0,0,0,0,0,0,0,0,0,0,0,0,0,0,0,0,0,0,0,0,-2.8805,-2.8805,0,-2.8821,-2.8821,-2.8822,-2.8802,-2.8802,-2.8801,-2.88,-2.8816,-2.8817,-2.8818,0,0,0,0,0,0,0,0,0,0,0,0,0,-2.8756,-2.8757,-2.8805,-2.8805,-2.8805,-2.8821,-2.8821,-2.8822,-2.8803,-2.8802,-2.8801,-2.88,-2.8815,-2.8817,-2.8818,0,0,0,0,0,0,0,0,0,0,0,0,0,-2.8776,-2.8758,-2.8805,-2.8798,-2.8797,-2.8821,-2.8821,-2.8822,-2.8803,-2.8802,-2.8801,-2.88,-2.8815,-2.8816,-2.8818,-2.8849,0,0,-2.8823,-2.8824,0,0,0,0,0,0,0,0,-2.8775,-2.8777,-2.8799,-2.8798,-2.8798,-2.8809,-2.881,-2.8831,-2.8803,-2.8801,-2.88,-2.8799,-2.8814,-2.8816,-2.8821,-2.885,-2.8851,-2.8823,-2.8824,-2.8825,-2.8825,0,0,0,0,0,0,0,-2.8773,-2.8777,-2.8811,-2.8799,-2.8798,-2.8794,-2.8795,-2.8814,-2.8813,-2.8801,-2.8799,-2.8802,-2.8814,-2.882,-2.8821,-2.8851,-2.8823,-2.8824,-2.8825,-2.8826,-2.8907,-2.8908,0,0,0,0,0,0,-2.8773,-2.8776,-2.8811,-2.8812,-2.8783,-2.8795,-2.8797,-2.8806,-2.8813,-2.8813,-2.8803,-2.8801,-2.8817,-2.8819,-2.8822,-2.8859,-2.8825,-2.8826,-2.8827,-2.8906,-2.8907,-2.8909,0,0,0,0,0,0,-2.8772,-2.8776,-2.881,-2.8793,-2.8797,-2.8797,-2.8808,-2.8807,-2.8813,-2.8814,-2.8814,-2.8809,-2.8817,-2.882,-2.8843,-2.8859,-2.8827,-2.8828,-2.8904,-2.8906,-2.8908,-2.8934,0,0,0,0,0,0,-2.8771,-2.8776,-2.8788,-2.8794,-2.8798,-2.8831,-2.8809,-2.8808,-2.8816,-2.8814,-2.882,-2.882,-2.8816,-2.8841,-2.8844,-2.8861,-2.883,-2.8903,-2.8905,-2.8907,-2.8931,-2.8936,-2.894,0,0,0,0,0,-2.8769,-2.8794,-2.8789,-2.8793,-2.8813,-2.8832,-2.8835,-2.883,-2.8817,-2.8829,-2.883,-2.882,-2.8857,-2.8843,-2.8847,-2.8865,-2.8902,-2.8905,-2.8907,-2.8929,-2.8935,-2.894,0,0,0,0,0,0,-2.8789,-2.8795,-2.8789,-2.8816,-2.8824,-2.8829,-2.8844,-2.8836,-2.8847,-2.8844,-2.8838,-2.8839,-2.8864,-2.8867,-2.8851,-2.8896,-2.8877,-2.8881,-2.8893,-2.8898,-2.8903,-2.8901,-2.8831,0,0,0,0,0,-2.8797,-2.8812,-2.8816,-2.884,-2.8844,-2.8844,-2.8852,-2.8848,-2.8855,-2.8858,-2.886,-2.8868,-2.8881,-2.889,-2.8902,-2.8932,-2.8933,-2.8946,-2.895,-2.8954,-2.8957,-2.8973,-2.8979,-2.8917,-2.8917,-2.8917,0,0,-2.8813,-2.8818,-2.8828,-2.8844,-2.885,-2.8866,-2.8846,-2.8864,-2.8875,-2.886,-2.8883,-2.8885,-2.8893,-2.892,-2.8931,-2.8922,-2.8975,-2.8958,-2.896,-2.8961,-2.8977,-2.8983,-2.8988,-2.8919,-2.8919,-2.8919,0,0,-2.885,-2.8855,-2.8876,-2.8883,-2.8892,-2.8891,-2.8896,-2.8903,-2.8904,-2.8926,-2.8916,-2.8929,-2.8952,-2.8959,-2.8965,-2.9006,-2.8997,-2.901,-2.9033,-2.9049,-2.9054,-2.9058,-2.9073,-2.9078,-2.9013,-2.9013,-2.9013,0,-2.8869,-2.8892,-2.8888,-2.8906,-2.8914,-2.8903,-2.8924,-2.893,-2.8942,-2.8948,-2.8938,-2.8967,-2.8971,-2.9,-2.901,-2.9015,-2.9021,-2.9009,-2.9054,-2.9058,-2.9062,-2.9076,-2.9081,-2.9015,-2.9015,-2.9015,-2.9014,0,-2.8915,-2.8931,-2.8947,-2.896,-2.897,-2.899,-2.8988,-2.8999,-2.8994,-2.8995,-2.9018,-2.9023,-2.9037,-2.9043,-2.9039,-2.9071,-2.9065,-2.9055,-2.9036,-2.9069,-2.9082,-2.9087,-2.9017,-2.9017,-2.9016,-2.9016,0,0,-2.8964,-2.8975,-2.8981,-2.8987,-2.8997,-2.901,-2.9029,-2.9043,-2.9052,-2.9061,-2.9077,-2.9098,-2.9088,-2.9095,-2.9091,-2.9106,-2.9138,-2.9093,-2.9093,-2.9101,-2.9174,-2.9182,-2.9188,-2.9132,-2.9133,-2.9134,-2.9174,0,-2.9001,-2.9035,-2.9033,-2.9065,-2.908,-2.907,-2.9087,-2.9095,-2.9096,-2.9109,-2.9111,-2.9125,-2.9112,-2.9116,-2.913,-2.9131,-2.9153,-2.9128,-2.9147,-2.9148,-2.9145,-2.9195,-2.9203,-2.924,-2.9179,-2.9179,-2.918,0,-2.9049,-2.9061,-2.9095,-2.9103,-2.9109,-2.9125,-2.9138,-2.915,-2.9159,-2.9159,-2.9168,-2.9162,-2.9181,-2.9163,-2.919,-2.9174,-2.9181,-2.9184,-2.9185,-2.9186,-2.9165,-2.9197,-2.9252,-2.9257,-2.9188,-2.9187,-2.9187,0,-2.9081,-2.9106,-2.9129,-2.9135,-2.9145,-2.9156,-2.9161,-2.9168,-2.9177,-2.9189,-2.9194,-2.9208,-2.9215,-2.9225,-2.9223,-2.921,-2.9251,-2.9232,-2.9251,-2.9251,-2.9259,-2.9258,-2.9315,-2.9265,-2.9265,-2.9265,-2.9265,0,-2.9123,-2.9144,-2.9144,-2.9159,-2.9182,-2.9179,-2.9202,-2.9206,-2.9213,-2.9228,-2.922,-2.9234,-2.923,-2.9244,-2.9243,-2.9265,-2.9269,-2.9269,-2.9268,-2.927,-2.927,-2.9274,-2.9271,-2.9266,-2.9266,-2.9266,-2.9265,0,-2.9163,-2.9164,-2.9189,-2.9197,-2.9199,-2.9216,-2.9223,-2.9237,-2.9238,-2.9257,-2.9261,-2.9263,-2.9279,-2.9278,-2.9296,-2.9295,-2.9323,-2.9319,-2.932,-2.9319,-2.9338,-2.9336,-2.9399,-2.9407,-2.9352,-2.9353,-2.9353,0,-2.9189,-2.9205,-2.9215,-2.9225,-2.9231,-2.9246,-2.9256,-2.9254,-2.9264,-2.9275,-2.9288,-2.9303,-2.9315,-2.9342,-2.9344,-2.9358,-2.9355,-2.9376,-2.9357,-2.9358,-2.9355,-2.9354,-2.9355,-2.9379,-2.938,-2.938,-2.9381,0,-2.9236,-2.9236,-2.925,-2.9264,-2.9276,-2.9287,-2.9297,-2.9306,-2.9305,-2.9316,-2.9333,-2.9343,-2.9362,-2.9377,-2.9391,-2.9395,-2.9388,-2.9387,-2.9392,-2.9393,-2.9393,-2.9393,-2.933,-2.9385,-2.9385,-2.9385,-2.9384,-2.9384,-2.9269,-2.9284,-2.9293,-2.9309,-2.9317,-2.9327,-2.9341,-2.9344,-2.9358,-2.9374,-2.9372,-2.9391,-2.9399,-2.9417,-2.9423,-2.9437,-2.943,-2.9437,-2.9439,-2.9441,-2.9443,-2.9391,-2.944,-2.944,-2.9439,-2.9439,-2.9439,0,-2.9316,-2.9322,-2.9337,-2.9352,-2.9364,-2.9358,-2.9369,-2.938,-2.9397,-2.9406,-2.9419,-2.9438,-2.9453,-2.9458,-2.9472,-2.9483,-2.948,-2.9487,-2.9486,-2.9487,-2.9449,-2.9443,-2.9489,-2.9489,-2.9489,-2.9489,-2.9489,-2.9489,-2.9341,-2.9365,-2.9366,-2.9394,-2.94,-2.9419,-2.9426,-2.9435,-2.9442,-2.9465,-2.9478,-2.9481,-2.9488,-2.9503,-2.9517,-2.9518,-2.9524,-2.9532,-2.9531,-2.9495,-2.949,-2.9485,-2.9479,-2.9533,-2.9533,-2.9569,-2.9569,-2.9569]}]]